| time (UTC) | temp C | wind direction | speed KPH | gust KPH | rain 1hr cm | rain 24hr cm | rain mn cm | humidity % | barometer mb |
| 20260510173555 | 16 | 272 | 4.8 | 12.9 | 0.00 | 0.00 | 0.00 | 71 | 1019.3 |
| 20260510173059 | 16 | 263 | 3.2 | 12.9 | 0.00 | 0.00 | 0.00 | 70 | 1019.3 |
| 20260510172559 | 16 | 253 | 4.8 | 16.1 | 0.00 | 0.00 | 0.00 | 72 | 1019.3 |
| 20260510172555 | 16 | 242 | 4.8 | 16.1 | 0.00 | 0.00 | 0.00 | 73 | 1019.2 |
| 20260510171558 | 15 | 211 | 4.8 | 16.1 | 0.00 | 0.00 | 0.00 | 73 | 1019.2 |
| 20260510171554 | 15 | 252 | 6.4 | 16.1 | 0.00 | 0.00 | 0.00 | 73 | 1019.2 |
| 20260510170552 | 15 | 0 | 4.8 | 11.3 | 0.00 | 0.00 | 0.00 | 74 | 1019.3 |
| 20260510170052 | 15 | 236 | 4.8 | 11.3 | 0.00 | 0.00 | 0.00 | 76 | 1019.3 |
| 20260510165551 | 15 | 227 | 3.2 | 11.3 | 0.00 | 0.00 | 0.00 | 75 | 1019.3 |
| 20260510165050 | 15 | 279 | 3.2 | 6.4 | 0.00 | 0.00 | 0.00 | 76 | 1019.3 |
| 20260510164551 | 15 | 236 | 3.2 | 12.9 | 0.00 | 0.00 | 0.00 | 78 | 1019.1 |
| 20260510164050 | 14 | 288 | 4.8 | 12.9 | 0.00 | 0.00 | 0.00 | 76 | 1019.1 |
| 20260510163550 | 14 | 291 | 6.4 | 12.9 | 0.00 | 0.00 | 0.00 | 76 | 1019.1 |
| 20260510163050 | 14 | 219 | 4.8 | 12.9 | 0.00 | 0.00 | 0.00 | 75 | 1019.0 |
| 20260510162548 | 14 | 325 | 3.2 | 9.7 | 0.00 | 0.00 | 0.00 | 76 | 1019.1 |
| 20260510162053 | 14 | 253 | 3.2 | 9.7 | 0.00 | 0.00 | 0.00 | 77 | 1019.0 |
| 20260510162049 | 14 | 265 | 3.2 | 9.7 | 0.00 | 0.00 | 0.00 | 78 | 1019.1 |
| 20260510161047 | 14 | 309 | 3.2 | 9.7 | 0.00 | 0.00 | 0.00 | 77 | 1019.0 |
| 20260510160547 | 14 | 304 | 3.2 | 12.9 | 0.00 | 0.00 | 0.00 | 77 | 1019.0 |
| 20260510160048 | 14 | 261 | 3.2 | 12.9 | 0.00 | 0.00 | 0.00 | 76 | 1019.0 |
| 20260510155549 | 14 | 251 | 3.2 | 6.4 | 0.00 | 0.00 | 0.00 | 79 | 1019.0 |
| 20260510155048 | 13 | 299 | 3.2 | 8.0 | 0.00 | 0.00 | 0.00 | 79 | 1019.0 |
| 20260510154555 | 13 | 257 | 3.2 | 12.9 | 0.00 | 0.00 | 0.00 | 79 | 1018.8 |
| 20260510154548 | 13 | 269 | 4.8 | 12.9 | 0.00 | 0.00 | 0.00 | 79 | 1019.0 |
| 20260510154048 | 13 | 267 | 3.2 | 12.9 | 0.00 | 0.00 | 0.00 | 79 | 1018.8 |
| 20260510153053 | 13 | 233 | 3.2 | 8.0 | 0.00 | 0.00 | 0.00 | 81 | 1018.7 |
| 20260510153049 | 13 | 275 | 3.2 | 12.9 | 0.00 | 0.00 | 0.00 | 80 | 1018.7 |
| 20260510152047 | 12 | 265 | 3.2 | 14.5 | 0.00 | 0.00 | 0.00 | 80 | 1018.8 |
| 20260510151547 | 12 | 252 | 4.8 | 14.5 | 0.00 | 0.00 | 0.00 | 81 | 1018.8 |
| 20260510151047 | 12 | 286 | 4.8 | 14.5 | 0.00 | 0.00 | 0.00 | 81 | 1018.8 |
| 20260510150547 | 12 | 263 | 4.8 | 14.5 | 0.00 | 0.00 | 0.00 | 81 | 1018.8 |
| 20260510150053 | 12 | 321 | 3.2 | 8.0 | 0.00 | 0.00 | 0.00 | 83 | 1018.6 |
| 20260510150049 | 12 | 250 | 4.8 | 11.3 | 0.00 | 0.00 | 0.00 | 82 | 1018.7 |
| 20260510145701 | 12 | 254 | 3.2 | 11.3 | 0.00 | 0.00 | 0.00 | 83 | 1018.5 |
| 20260510144547 | 12 | 261 | 3.2 | 11.3 | 0.00 | 0.00 | 0.00 | 83 | 1018.5 |
| 20260510144047 | 12 | 160 | 3.2 | 11.3 | 0.00 | 0.00 | 0.00 | 84 | 1018.4 |
| 20260510143547 | 11 | 272 | 1.6 | 8.0 | 0.00 | 0.00 | 0.00 | 85 | 1018.4 |
| 20260510143053 | 11 | 258 | 3.2 | 8.0 | 0.00 | 0.00 | 0.00 | 84 | 1018.3 |
| 20260510143047 | 11 | 236 | 1.6 | 8.0 | 0.00 | 0.00 | 0.00 | 85 | 1018.4 |
| 20260510142047 | 11 | 252 | 3.2 | 6.4 | 0.00 | 0.00 | 0.00 | 84 | 1018.4 |
| 20260510141546 | 11 | 254 | 3.2 | 8.0 | 0.00 | 0.00 | 0.00 | 85 | 1018.3 |
| 20260510141045 | 11 | 313 | 3.2 | 11.3 | 0.00 | 0.00 | 0.00 | 85 | 1018.1 |
| 20260510140550 | 11 | 250 | 1.6 | 11.3 | 0.00 | 0.00 | 0.00 | 85 | 1018.5 |
| 20260510140545 | 11 | 259 | 3.2 | 11.3 | 0.00 | 0.00 | 0.00 | 85 | 1018.2 |
| 20260510140149 | 11 | 277 | 3.2 | 11.3 | 0.00 | 0.00 | 0.00 | 86 | 1018.2 |
| 20260510135045 | 11 | 265 | 1.6 | 4.8 | 0.00 | 0.00 | 0.00 | 86 | 1018.2 |
| 20260510135040 | 11 | 243 | 1.6 | 8.0 | 0.00 | 0.00 | 0.00 | 85 | 1017.9 |
| 20260510134643 | 11 | 234 | 1.6 | 4.8 | 0.00 | 0.00 | 0.00 | 85 | 1018.0 |
| 20260510133536 | 11 | 259 | 1.6 | 8.0 | 0.00 | 0.00 | 0.00 | 85 | 1017.9 |
| 20260510133037 | 11 | 254 | 1.6 | 6.4 | 0.00 | 0.00 | 0.00 | 85 | 1017.8 |
| 20260510132536 | 11 | 254 | 1.6 | 6.4 | 0.00 | 0.00 | 0.00 | 85 | 1017.8 |
| 20260510132035 | 11 | 279 | 1.6 | 6.4 | 0.00 | 0.00 | 0.00 | 85 | 1017.9 |
| 20260510131533 | 11 | 221 | 3.2 | 12.9 | 0.00 | 0.00 | 0.00 | 85 | 1017.8 |
| 20260510131033 | 11 | 219 | 4.8 | 12.9 | 0.00 | 0.00 | 0.00 | 85 | 1017.9 |
| 20260510130533 | 11 | 209 | 4.8 | 12.9 | 0.00 | 0.00 | 0.00 | 85 | 1018.0 |
| 20260510130033 | 11 | 227 | 3.2 | 12.9 | 0.00 | 0.00 | 0.00 | 85 | 1017.8 |
| 20260510125533 | 11 | 267 | 3.2 | 12.9 | 0.00 | 0.00 | 0.00 | 85 | 1017.6 |
| 20260510125034 | 11 | 246 | 3.2 | 12.9 | 0.00 | 0.00 | 0.00 | 85 | 1017.6 |
| 20260510124533 | 11 | 220 | 3.2 | 8.0 | 0.00 | 0.00 | 0.00 | 85 | 1017.5 |
| 20260510124038 | 11 | 281 | 3.2 | 11.3 | 0.00 | 0.00 | 0.00 | 85 | 1017.6 |
| 20260510124033 | 11 | 232 | 3.2 | 9.7 | 0.00 | 0.00 | 0.00 | 85 | 1017.6 |
| 20260510123037 | 11 | 252 | 1.6 | 9.7 | 0.00 | 0.00 | 0.00 | 86 | 1017.5 |
| 20260510123033 | 11 | 247 | 1.6 | 11.3 | 0.00 | 0.00 | 0.00 | 86 | 1017.6 |
| 20260510122033 | 11 | 269 | 3.2 | 9.7 | 0.00 | 0.00 | 0.00 | 86 | 1017.3 |
| 20260510121535 | 11 | 265 | 3.2 | 8.0 | 0.00 | 0.00 | 0.00 | 86 | 1017.7 |
| 20260510121032 | 11 | 294 | 3.2 | 11.3 | 0.00 | 0.00 | 0.00 | 86 | 1017.7 |
| 20260510120531 | 11 | 215 | 3.2 | 11.3 | 0.00 | 0.00 | 0.00 | 86 | 1017.8 |
| 20260510120033 | 11 | 250 | 3.2 | 14.5 | 0.00 | 0.00 | 0.00 | 86 | 1017.7 |
| 20260510115531 | 11 | 268 | 3.2 | 14.5 | 0.00 | 0.00 | 0.00 | 86 | 1017.6 |
| 20260510115035 | 11 | 232 | 3.2 | 14.5 | 0.00 | 0.00 | 0.00 | 87 | 1017.6 |
| 20260510115031 | 11 | 242 | 3.2 | 14.5 | 0.00 | 0.00 | 0.00 | 87 | 1017.7 |
| 20260510114031 | 11 | 256 | 4.8 | 14.5 | 0.00 | 0.00 | 0.00 | 87 | 1017.6 |
| 20260510113531 | 11 | 159 | 3.2 | 12.9 | 0.00 | 0.00 | 0.00 | 87 | 1017.6 |
| 20260510113036 | 11 | 283 | 3.2 | 12.9 | 0.00 | 0.00 | 0.00 | 87 | 1017.7 |
| 20260510113031 | 11 | 285 | 3.2 | 14.5 | 0.00 | 0.00 | 0.00 | 87 | 1017.7 |
| 20260510112634 | 11 | 282 | 3.2 | 14.5 | 0.00 | 0.00 | 0.00 | 87 | 1017.7 |
| 20260510111530 | 11 | 271 | 3.2 | 14.5 | 0.00 | 0.00 | 0.00 | 87 | 1017.7 |
| 20260510111031 | 11 | 232 | 3.2 | 14.5 | 0.00 | 0.00 | 0.00 | 87 | 1017.5 |
| 20260510110530 | 11 | 269 | 4.8 | 11.3 | 0.00 | 0.00 | 0.00 | 87 | 1017.6 |
| 20260510110029 | 11 | 261 | 4.8 | 16.1 | 0.00 | 0.00 | 0.00 | 87 | 1017.7 |
| 20260510105529 | 11 | 286 | 4.8 | 16.1 | 0.00 | 0.00 | 0.00 | 87 | 1017.7 |
| 20260510105029 | 11 | 244 | 4.8 | 16.1 | 0.00 | 0.00 | 0.00 | 87 | 1017.6 |
| 20260510104529 | 11 | 279 | 6.4 | 16.1 | 0.00 | 0.00 | 0.00 | 88 | 1017.8 |
| 20260510104029 | 11 | 254 | 4.8 | 19.3 | 0.00 | 0.00 | 0.00 | 88 | 1017.7 |
| 20260510103534 | 11 | 240 | 3.2 | 12.9 | 0.00 | 0.00 | 0.00 | 88 | 1017.3 |
| 20260510103529 | 11 | 246 | 4.8 | 19.3 | 0.00 | 0.00 | 0.00 | 88 | 1017.3 |
| 20260510102528 | 11 | 241 | 3.2 | 12.9 | 0.00 | 0.00 | 0.00 | 88 | 1017.3 |
| 20260510102027 | 11 | 253 | 3.2 | 19.3 | 0.00 | 0.00 | 0.00 | 87 | 1017.3 |
| 20260510101527 | 11 | 207 | 4.8 | 19.3 | 0.00 | 0.00 | 0.00 | 87 | 1017.3 |
| 20260510101027 | 11 | 222 | 4.8 | 12.9 | 0.00 | 0.00 | 0.00 | 88 | 1017.2 |
| 20260510100531 | 11 | 269 | 3.2 | 14.5 | 0.00 | 0.00 | 0.00 | 88 | 1017.2 |
| 20260510100527 | 11 | 222 | 3.2 | 14.5 | 0.00 | 0.00 | 0.00 | 88 | 1017.2 |
| 20260510095525 | 11 | 229 | 3.2 | 14.5 | 0.00 | 0.00 | 0.00 | 88 | 1017.1 |
| 20260510095025 | 11 | 279 | 3.2 | 14.5 | 0.00 | 0.00 | 0.00 | 88 | 1017.0 |
| 20260510094525 | 11 | 238 | 3.2 | 16.1 | 0.00 | 0.00 | 0.00 | 88 | 1017.0 |
| 20260510094025 | 11 | 239 | 4.8 | 16.1 | 0.00 | 0.00 | 0.00 | 88 | 1017.0 |
| 20260510093525 | 11 | 229 | 4.8 | 14.5 | 0.00 | 0.00 | 0.00 | 88 | 1017.0 |
| 20260510093025 | 11 | 288 | 4.8 | 16.1 | 0.00 | 0.00 | 0.00 | 88 | 1016.8 |
| 20260510092524 | 11 | 217 | 4.8 | 16.1 | 0.00 | 0.00 | 0.00 | 88 | 1016.7 |
| 20260510092024 | 11 | 286 | 4.8 | 14.5 | 0.00 | 0.00 | 0.00 | 87 | 1016.6 |
| 20260510091522 | 11 | 266 | 4.8 | 17.7 | 0.00 | 0.00 | 0.00 | 87 | 1016.7 |
| 20260510091022 | 11 | 265 | 4.8 | 17.7 | 0.00 | 0.00 | 0.00 | 87 | 1016.8 |
| 20260510090523 | 11 | 248 | 4.8 | 19.3 | 0.00 | 0.00 | 0.00 | 87 | 1016.8 |
| 20260510090024 | 11 | 225 | 4.8 | 19.3 | 0.00 | 0.00 | 0.00 | 87 | 1016.9 |
| 20260510085522 | 11 | 252 | 4.8 | 16.1 | 0.00 | 0.00 | 0.00 | 86 | 1017.2 |
| 20260510085021 | 11 | 269 | 4.8 | 16.1 | 0.00 | 0.00 | 0.00 | 86 | 1017.1 |
| 20260510084518 | 11 | 236 | 6.4 | 16.1 | 0.00 | 0.00 | 0.00 | 87 | 1017.1 |
| 20260510084019 | 11 | 225 | 4.8 | 14.5 | 0.00 | 0.00 | 0.00 | 87 | 1017.0 |
| 20260510083519 | 11 | 206 | 6.4 | 17.7 | 0.00 | 0.00 | 0.00 | 88 | 1017.0 |
| 20260510083018 | 11 | 281 | 6.4 | 17.7 | 0.00 | 0.00 | 0.00 | 88 | 1017.0 |
| 20260510082520 | 11 | 281 | 4.8 | 16.1 | 0.00 | 0.00 | 0.00 | 88 | 1017.0 |
| 20260510082019 | 11 | 281 | 4.8 | 16.1 | 0.00 | 0.00 | 0.00 | 88 | 1016.9 |
| 20260510081520 | 11 | 203 | 4.8 | 20.9 | 0.00 | 0.00 | 0.00 | 88 | 1016.7 |
| 20260510081019 | 11 | 204 | 6.4 | 20.9 | 0.00 | 0.00 | 0.00 | 89 | 1016.6 |
| 20260510080518 | 11 | 244 | 6.4 | 14.5 | 0.00 | 0.00 | 0.00 | 89 | 1016.7 |
| 20260510080018 | 11 | 215 | 6.4 | 14.5 | 0.00 | 0.00 | 0.00 | 89 | 1016.6 |
| 20260510075522 | 11 | 265 | 4.8 | 16.1 | 0.00 | 0.00 | 0.00 | 89 | 1016.6 |
| 20260510075518 | 11 | 241 | 4.8 | 14.5 | 0.00 | 0.00 | 0.00 | 89 | 1016.6 |
| 20260510074516 | 11 | 267 | 6.4 | 16.1 | 0.00 | 0.00 | 0.00 | 89 | 1016.6 |
| 20260510074016 | 11 | 266 | 6.4 | 16.1 | 0.00 | 0.00 | 0.00 | 89 | 1016.6 |
| 20260510073516 | 11 | 271 | 4.8 | 16.1 | 0.00 | 0.00 | 0.00 | 89 | 1016.4 |
| 20260510073016 | 11 | 200 | 4.8 | 16.1 | 0.00 | 0.00 | 0.00 | 88 | 1016.6 |
| 20260510072517 | 11 | 269 | 6.4 | 16.1 | 0.00 | 0.00 | 0.00 | 88 | 1016.4 |
| 20260510072016 | 11 | 212 | 4.8 | 14.5 | 0.00 | 0.00 | 0.00 | 88 | 1016.3 |
| 20260510071516 | 11 | 249 | 4.8 | 14.5 | 0.00 | 0.00 | 0.00 | 88 | 1016.4 |
| 20260510071017 | 12 | 301 | 4.8 | 14.5 | 0.00 | 0.00 | 0.00 | 88 | 1016.4 |
| 20260510070516 | 12 | 265 | 4.8 | 14.5 | 0.00 | 0.00 | 0.00 | 88 | 1016.6 |
| 20260510070018 | 12 | 227 | 4.8 | 14.5 | 0.00 | 0.00 | 0.00 | 88 | 1016.6 |
| 20260510065517 | 12 | 329 | 4.8 | 16.1 | 0.00 | 0.00 | 0.00 | 88 | 1016.6 |
| 20260510065017 | 12 | 285 | 6.4 | 16.1 | 0.00 | 0.00 | 0.00 | 88 | 1016.6 |
| 20260510064516 | 12 | 240 | 4.8 | 14.5 | 0.00 | 0.00 | 0.00 | 88 | 1016.6 |
| 20260510064017 | 12 | 234 | 4.8 | 19.3 | 0.00 | 0.00 | 0.00 | 88 | 1016.6 |
| 20260510063516 | 12 | 221 | 6.4 | 20.9 | 0.00 | 0.00 | 0.00 | 87 | 1016.6 |
| 20260510063020 | 12 | 189 | 4.8 | 17.7 | 0.00 | 0.00 | 0.00 | 87 | 1016.7 |
| 20260510063016 | 12 | 240 | 6.4 | 20.9 | 0.00 | 0.00 | 0.00 | 87 | 1016.6 |
| 20260510062015 | 12 | 276 | 4.8 | 17.7 | 0.00 | 0.00 | 0.00 | 87 | 1016.7 |
| 20260510061516 | 12 | 250 | 4.8 | 16.1 | 0.00 | 0.00 | 0.00 | 87 | 1016.6 |
| 20260510061015 | 12 | 248 | 3.2 | 16.1 | 0.00 | 0.00 | 0.00 | 86 | 1016.8 |
| 20260510060515 | 12 | 192 | 3.2 | 12.9 | 0.00 | 0.00 | 0.00 | 86 | 1016.6 |
| 20260510060016 | 12 | 225 | 4.8 | 14.5 | 0.00 | 0.00 | 0.00 | 85 | 1016.6 |
| 20260510055515 | 12 | 208 | 4.8 | 14.5 | 0.00 | 0.00 | 0.00 | 85 | 1016.6 |
| 20260510055013 | 12 | 268 | 4.8 | 14.5 | 0.00 | 0.00 | 0.00 | 85 | 1016.6 |
| 20260510054518 | 13 | 236 | 4.8 | 14.5 | 0.00 | 0.00 | 0.00 | 84 | 1016.3 |
| 20260510054514 | 12 | 269 | 3.2 | 12.9 | 0.00 | 0.00 | 0.00 | 84 | 1016.4 |
| 20260510054128 | 13 | 257 | 4.8 | 14.5 | 0.00 | 0.00 | 0.00 | 83 | 1016.3 |
| 20260510053013 | 13 | 255 | 3.2 | 11.3 | 0.00 | 0.00 | 0.00 | 82 | 1016.3 |
| 20260510052513 | 13 | 245 | 3.2 | 9.7 | 0.00 | 0.00 | 0.00 | 82 | 1016.2 |
| 20260510052013 | 13 | 238 | 3.2 | 9.7 | 0.00 | 0.00 | 0.00 | 81 | 1016.2 |
| 20260510051517 | 13 | 225 | 1.6 | 11.3 | 0.00 | 0.00 | 0.00 | 79 | 1016.1 |
| 20260510051513 | 13 | 270 | 1.6 | 11.3 | 0.00 | 0.00 | 0.00 | 80 | 1016.1 |
| 20260510050518 | 14 | 242 | 4.8 | 12.9 | 0.00 | 0.00 | 0.00 | 77 | 1015.8 |
| 20260510050513 | 14 | 268 | 3.2 | 11.3 | 0.00 | 0.00 | 0.00 | 79 | 1016.1 |
| 20260510050012 | 14 | 253 | 3.2 | 12.9 | 0.00 | 0.00 | 0.00 | 78 | 1016.0 |
| 20260510045011 | 15 | 250 | 4.8 | 14.5 | 0.00 | 0.00 | 0.00 | 76 | 1015.7 |
| 20260510044511 | 15 | 286 | 8.0 | 19.3 | 0.00 | 0.00 | 0.00 | 75 | 1015.7 |
| 20260510044011 | 15 | 234 | 9.7 | 20.9 | 0.00 | 0.00 | 0.00 | 74 | 1015.6 |
| 20260510043512 | 15 | 265 | 8.0 | 20.9 | 0.00 | 0.00 | 0.00 | 73 | 1015.6 |
| 20260510043010 | 15 | 240 | 6.4 | 19.3 | 0.00 | 0.00 | 0.00 | 73 | 1015.6 |
| 20260510042511 | 16 | 279 | 6.4 | 19.3 | 0.00 | 0.00 | 0.00 | 72 | 1015.6 |
| 20260510042012 | 16 | 209 | 6.4 | 17.7 | 0.00 | 0.00 | 0.00 | 71 | 1015.6 |
| 20260510041514 | 16 | 217 | 4.8 | 17.7 | 0.00 | 0.00 | 0.00 | 70 | 1015.4 |
| 20260510041509 | 16 | 222 | 6.4 | 17.7 | 0.00 | 0.00 | 0.00 | 70 | 1015.5 |
| 20260510040513 | 16 | 257 | 4.8 | 17.7 | 0.00 | 0.00 | 0.00 | 68 | 1015.2 |
| 20260510040508 | 16 | 215 | 4.8 | 17.7 | 0.00 | 0.00 | 0.00 | 69 | 1015.4 |
| 20260510035515 | 16 | 232 | 4.8 | 11.3 | 0.00 | 0.00 | 0.00 | 68 | 1015.0 |
| 20260510035511 | 16 | 223 | 4.8 | 17.7 | 0.00 | 0.00 | 0.00 | 68 | 1015.2 |
| 20260510034509 | 17 | 242 | 3.2 | 11.3 | 0.00 | 0.00 | 0.00 | 68 | 1015.0 |
| 20260510034015 | 17 | 244 | 3.2 | 14.5 | 0.00 | 0.00 | 0.00 | 67 | 1014.9 |
| 20260510034009 | 17 | 213 | 3.2 | 14.5 | 0.00 | 0.00 | 0.00 | 67 | 1014.9 |
| 20260510033007 | 17 | 263 | 3.2 | 12.9 | 0.00 | 0.00 | 0.00 | 67 | 1014.8 |
| 20260510032508 | 17 | 227 | 3.2 | 11.3 | 0.00 | 0.00 | 0.00 | 67 | 1014.8 |
| 20260510032006 | 17 | 248 | 3.2 | 11.3 | 0.00 | 0.00 | 0.00 | 66 | 1014.8 |
| 20260510031506 | 17 | 259 | 3.2 | 11.3 | 0.00 | 0.00 | 0.00 | 65 | 1014.8 |
| 20260510031007 | 17 | 270 | 1.6 | 11.3 | 0.00 | 0.00 | 0.00 | 65 | 1014.8 |
| 20260510030507 | 18 | 242 | 1.6 | 4.8 | 0.00 | 0.00 | 0.00 | 65 | 1014.8 |
| 20260510030006 | 18 | 241 | 1.6 | 4.8 | 0.00 | 0.00 | 0.00 | 65 | 1014.8 |
| 20260510025508 | 18 | 257 | 1.6 | 12.9 | 0.00 | 0.00 | 0.00 | 64 | 1014.7 |
| 20260510025007 | 18 | 198 | 1.6 | 12.9 | 0.00 | 0.00 | 0.00 | 63 | 1014.7 |
| 20260510024511 | 18 | 250 | 1.6 | 11.3 | 0.00 | 0.00 | 0.00 | 62 | 1014.7 |
| 20260510024506 | 18 | 240 | 3.2 | 9.7 | 0.00 | 0.00 | 0.00 | 63 | 1014.8 |
| 20260510023506 | 19 | 254 | 1.6 | 11.3 | 0.00 | 0.00 | 0.00 | 61 | 1014.7 |
| 20260510023007 | 19 | 271 | 3.2 | 11.3 | 0.00 | 0.00 | 0.00 | 61 | 1014.7 |
| 20260510022506 | 19 | 244 | 3.2 | 8.0 | 0.00 | 0.00 | 0.00 | 61 | 1014.6 |
| 20260510022007 | 20 | 252 | 3.2 | 9.7 | 0.00 | 0.00 | 0.00 | 60 | 1014.5 |
| 20260510021512 | 20 | 342 | 3.2 | 9.7 | 0.00 | 0.00 | 0.00 | 60 | 1014.6 |
| 20260510021508 | 20 | 260 | 3.2 | 9.7 | 0.00 | 0.00 | 0.00 | 60 | 1014.5 |
| 20260510021122 | 20 | 255 | 3.2 | 14.5 | 0.00 | 0.00 | 0.00 | 58 | 1014.6 |
| 20260510020006 | 20 | 243 | 1.6 | 14.5 | 0.00 | 0.00 | 0.00 | 59 | 1014.6 |
| 20260510015506 | 20 | 212 | 3.2 | 9.7 | 0.00 | 0.00 | 0.00 | 58 | 1014.5 |
| 20260510015012 | 21 | 242 | 3.2 | 11.3 | 0.00 | 0.00 | 0.00 | 53 | 1014.6 |
| 20260510015006 | 21 | 248 | 3.2 | 9.7 | 0.00 | 0.00 | 0.00 | 53 | 1014.6 |
| 20260510014006 | 21 | 243 | 3.2 | 11.3 | 0.00 | 0.00 | 0.00 | 53 | 1014.5 |
| 20260510013508 | 22 | 263 | 3.2 | 11.3 | 0.00 | 0.00 | 0.00 | 53 | 1014.6 |
| 20260510013007 | 22 | 226 | 3.2 | 12.9 | 0.00 | 0.00 | 0.00 | 51 | 1014.6 |
| 20260510012508 | 23 | 235 | 3.2 | 12.9 | 0.00 | 0.00 | 0.00 | 51 | 1014.6 |
| 20260510012006 | 23 | 242 | 3.2 | 12.9 | 0.00 | 0.00 | 0.00 | 50 | 1014.6 |
| 20260510011507 | 24 | 209 | 1.6 | 12.9 | 0.00 | 0.00 | 0.00 | 52 | 1014.6 |
| 20260510011006 | 25 | 248 | 1.6 | 8.0 | 0.00 | 0.00 | 0.00 | 52 | 1014.6 |
| 20260510010507 | 25 | 309 | 3.2 | 11.3 | 0.00 | 0.00 | 0.00 | 49 | 1014.6 |
| 20260510010006 | 25 | 292 | 3.2 | 11.3 | 0.00 | 0.00 | 0.00 | 49 | 1014.6 |
| 20260510005508 | 25 | 219 | 1.6 | 8.0 | 0.00 | 0.00 | 0.00 | 47 | 1014.6 |
| 20260510005006 | 25 | 319 | 1.6 | 3.2 | 0.00 | 0.00 | 0.00 | 45 | 1014.6 |
| 20260510004506 | 25 | 321 | 1.6 | 3.2 | 0.00 | 0.00 | 0.00 | 42 | 1014.6 |
| 20260510004006 | 25 | 222 | 1.6 | 4.8 | 0.00 | 0.00 | 0.00 | 42 | 1014.6 |
| 20260510003508 | 25 | 42 | 1.6 | 4.8 | 0.00 | 0.00 | 0.00 | 46 | 1014.5 |
| 20260510003006 | 25 | 355 | 1.6 | 4.8 | 0.00 | 0.00 | 0.00 | 45 | 1014.5 |
| 20260510002506 | 25 | 15 | 1.6 | 4.8 | 0.00 | 0.00 | 0.00 | 44 | 1014.5 |
| 20260510002008 | 25 | 5 | 1.6 | 4.8 | 0.00 | 0.00 | 0.00 | 47 | 1014.6 |
| 20260510001512 | 25 | 207 | 1.6 | 6.4 | 0.00 | 0.00 | 0.00 | 46 | 1014.8 |
| 20260510001507 | 25 | 5 | 1.6 | 6.4 | 0.00 | 0.00 | 0.00 | 43 | 1014.7 |
| 20260510001005 | 25 | 44 | 1.6 | 6.4 | 0.00 | 0.00 | 0.00 | 46 | 1014.8 |
| 20260510000005 | 25 | 5 | 1.6 | 6.4 | 0.00 | 0.00 | 0.00 | 47 | 1014.8 |
| 20260509235504 | 25 | 199 | 1.6 | 6.4 | 0.00 | 0.00 | 0.00 | 44 | 1014.8 |
| 20260509235010 | 24 | 11 | 3.2 | 6.4 | 0.00 | 0.00 | 0.00 | 45 | 1014.9 |
| 20260509235004 | 25 | 11 | 3.2 | 6.4 | 0.00 | 0.00 | 0.00 | 48 | 1014.9 |
| 20260509234617 | 25 | 13 | 3.2 | 6.4 | 0.00 | 0.00 | 0.00 | 48 | 1015.0 |
| 20260509233505 | 25 | 36 | 3.2 | 4.8 | 0.00 | 0.00 | 0.00 | 46 | 1015.0 |
| 20260509233004 | 25 | 332 | 3.2 | 6.4 | 0.00 | 0.00 | 0.00 | 43 | 1015.0 |
| 20260509232502 | 25 | 16 | 3.2 | 6.4 | 0.00 | 0.00 | 0.00 | 41 | 1015.0 |
| 20260509232000 | 25 | 11 | 1.6 | 4.8 | 0.00 | 0.00 | 0.00 | 42 | 1015.2 |
| 20260509231457 | 25 | 5 | 1.6 | 6.4 | 0.00 | 0.00 | 0.00 | 42 | 1015.2 |
| 20260509230956 | 25 | 78 | 1.6 | 6.4 | 0.00 | 0.00 | 0.00 | 44 | 1015.3 |
| 20260509230456 | 25 | 198 | 1.6 | 6.4 | 0.00 | 0.00 | 0.00 | 44 | 1015.4 |
| 20260509225958 | 25 | 309 | 1.6 | 6.4 | 0.00 | 0.00 | 0.00 | 44 | 1015.5 |
| 20260509225454 | 25 | 27 | 1.6 | 6.4 | 0.00 | 0.00 | 0.00 | 38 | 1015.5 |
| 20260509224954 | 24 | 332 | 3.2 | 4.8 | 0.00 | 0.00 | 0.00 | 44 | 1015.5 |
| 20260509224454 | 24 | 337 | 3.2 | 4.8 | 0.00 | 0.00 | 0.00 | 39 | 1015.6 |
| 20260509223954 | 24 | 318 | 3.2 | 4.8 | 0.00 | 0.00 | 0.00 | 43 | 1015.7 |
| 20260509223452 | 25 | 32 | 1.6 | 6.4 | 0.00 | 0.00 | 0.00 | 41 | 1015.7 |
| 20260509222952 | 24 | 19 | 1.6 | 6.4 | 0.00 | 0.00 | 0.00 | 44 | 1015.8 |
| 20260509222454 | 24 | 5 | 3.2 | 6.4 | 0.00 | 0.00 | 0.00 | 43 | 1015.8 |
| 20260509222108 | 24 | 290 | 1.6 | 6.4 | 0.00 | 0.00 | 0.00 | 46 | 1016.1 |
| 20260509221958 | 24 | 298 | 1.6 | 8.0 | 0.00 | 0.00 | 0.00 | 42 | 1016.0 |
| 20260509221953 | 24 | 305 | 3.2 | 8.0 | 0.00 | 0.00 | 0.00 | 45 | 1015.9 |
| 20260509220454 | 24 | 322 | 3.2 | 6.4 | 0.00 | 0.00 | 0.00 | 44 | 1016.2 |
| 20260509215953 | 24 | 54 | 1.6 | 6.4 | 0.00 | 0.00 | 0.00 | 46 | 1016.4 |
| 20260509215453 | 24 | 22 | 1.6 | 4.8 | 0.00 | 0.00 | 0.00 | 49 | 1016.4 |
| 20260509214956 | 23 | 332 | 3.2 | 11.3 | 0.00 | 0.00 | 0.00 | 42 | 1016.7 |
| 20260509214952 | 24 | 79 | 1.6 | 6.4 | 0.00 | 0.00 | 0.00 | 46 | 1016.6 |
| 20260509213950 | 23 | 10 | 3.2 | 11.3 | 0.00 | 0.00 | 0.00 | 43 | 1016.8 |
| 20260509213450 | 23 | 9 | 3.2 | 6.4 | 0.00 | 0.00 | 0.00 | 48 | 1016.9 |
| 20260509212951 | 23 | 5 | 1.6 | 6.4 | 0.00 | 0.00 | 0.00 | 44 | 1017.0 |
| 20260509212450 | 23 | 335 | 1.6 | 6.4 | 0.00 | 0.00 | 0.00 | 50 | 1017.1 |
| 20260509211950 | 23 | 268 | 1.6 | 3.2 | 0.00 | 0.00 | 0.00 | 44 | 1017.1 |
| 20260509211450 | 23 | 163 | 1.6 | 3.2 | 0.00 | 0.00 | 0.00 | 51 | 1017.2 |
| 20260509210950 | 22 | 78 | 1.6 | 6.4 | 0.00 | 0.00 | 0.00 | 47 | 1017.3 |
| 20260509210450 | 22 | 71 | 3.2 | 6.4 | 0.00 | 0.00 | 0.00 | 50 | 1017.4 |
| 20260509205950 | 22 | 338 | 3.2 | 6.4 | 0.00 | 0.00 | 0.00 | 55 | 1017.5 |
| 20260509205448 | 22 | 159 | 1.6 | 6.4 | 0.00 | 0.00 | 0.00 | 50 | 1017.5 |
| 20260509204948 | 22 | 239 | 1.6 | 6.4 | 0.00 | 0.00 | 0.00 | 50 | 1017.5 |
| 20260509204448 | 22 | 59 | 1.6 | 3.2 | 0.00 | 0.00 | 0.00 | 55 | 1017.6 |
| 20260509203948 | 22 | 58 | 1.6 | 4.8 | 0.00 | 0.00 | 0.00 | 48 | 1017.6 |
| 20260509203448 | 22 | 30 | 1.6 | 4.8 | 0.00 | 0.00 | 0.00 | 55 | 1017.7 |
| 20260509202952 | 21 | 244 | 1.6 | 6.4 | 0.00 | 0.00 | 0.00 | 52 | 1017.8 |
| 20260509202948 | 22 | 64 | 1.6 | 4.8 | 0.00 | 0.00 | 0.00 | 54 | 1017.8 |
| 20260509201948 | 21 | 142 | 0.0 | 6.4 | 0.00 | 0.00 | 0.00 | 50 | 1017.9 |
| 20260509201449 | 21 | 294 | 1.6 | 6.4 | 0.00 | 0.00 | 0.00 | 51 | 1017.9 |
| 20260509200948 | 21 | 5 | 1.6 | 6.4 | 0.00 | 0.00 | 0.00 | 53 | 1018.0 |
| 20260509200446 | 21 | 24 | 1.6 | 4.8 | 0.00 | 0.00 | 0.00 | 64 | 1018.2 |
| 20260509195946 | 20 | 231 | 1.6 | 6.4 | 0.00 | 0.00 | 0.00 | 56 | 1018.3 |
| 20260509195447 | 20 | 325 | 3.2 | 6.4 | 0.00 | 0.00 | 0.00 | 56 | 1018.4 |
| 20260509194946 | 20 | 347 | 3.2 | 6.4 | 0.00 | 0.00 | 0.00 | 59 | 1018.4 |
| 20260509194446 | 20 | 13 | 3.2 | 8.0 | 0.00 | 0.00 | 0.00 | 59 | 1018.4 |
| 20260509193947 | 20 | 16 | 3.2 | 8.0 | 0.00 | 0.00 | 0.00 | 58 | 1018.6 |
| 20260509193450 | 19 | 337 | 3.2 | 8.0 | 0.00 | 0.00 | 0.00 | 59 | 1018.6 |
| 20260509193445 | 19 | 291 | 3.2 | 8.0 | 0.00 | 0.00 | 0.00 | 61 | 1018.7 |
| 20260509192446 | 19 | 272 | 4.8 | 8.0 | 0.00 | 0.00 | 0.00 | 61 | 1018.8 |
| 20260509191944 | 19 | 326 | 3.2 | 8.0 | 0.00 | 0.00 | 0.00 | 63 | 1018.8 |
| 20260509191441 | 19 | 351 | 1.6 | 6.4 | 0.00 | 0.00 | 0.00 | 66 | 1018.9 |
| 20260509190947 | 18 | 200 | 1.6 | 3.2 | 0.00 | 0.00 | 0.00 | 66 | 1019.0 |
| 20260509190942 | 19 | 344 | 1.6 | 6.4 | 0.00 | 0.00 | 0.00 | 65 | 1018.9 |
| 20260509190442 | 19 | 301 | 1.6 | 4.8 | 0.00 | 0.00 | 0.00 | 64 | 1018.9 |
| 20260509185442 | 18 | 288 | 1.6 | 4.8 | 0.00 | 0.00 | 0.00 | 68 | 1019.1 |
| 20260509184942 | 18 | 290 | 1.6 | 8.0 | 0.00 | 0.00 | 0.00 | 67 | 1019.2 |
| 20260509184442 | 18 | 351 | 3.2 | 8.0 | 0.00 | 0.00 | 0.00 | 64 | 1019.2 |
| 20260509183942 | 18 | 5 | 3.2 | 8.0 | 0.00 | 0.00 | 0.00 | 67 | 1019.3 |
| 20260509183442 | 18 | 298 | 3.2 | 8.0 | 0.00 | 0.00 | 0.00 | 63 | 1019.2 |
| 20260509182939 | 18 | 325 | 1.6 | 4.8 | 0.00 | 0.00 | 0.00 | 66 | 1019.2 |
| 20260509182438 | 18 | 162 | 1.6 | 4.8 | 0.00 | 0.00 | 0.00 | 67 | 1019.3 |
| 20260509181938 | 17 | 304 | 1.6 | 8.0 | 0.00 | 0.00 | 0.00 | 67 | 1019.4 |
| 20260509181438 | 17 | 331 | 1.6 | 8.0 | 0.00 | 0.00 | 0.00 | 71 | 1019.4 |
| 20260509180938 | 17 | 246 | 1.6 | 4.8 | 0.00 | 0.00 | 0.00 | 71 | 1019.4 |
| 20260509180436 | 17 | 167 | 1.6 | 4.8 | 0.00 | 0.00 | 0.00 | 71 | 1019.4 |
| 20260509175933 | 17 | 35 | 1.6 | 4.8 | 0.00 | 0.00 | 0.00 | 70 | 1019.5 |
| 20260509175434 | 17 | 12 | 1.6 | 4.8 | 0.00 | 0.00 | 0.00 | 70 | 1019.6 |
| 20260509174939 | 16 | 194 | 1.6 | 4.8 | 0.00 | 0.00 | 0.00 | 72 | 1019.7 |
| 20260509174934 | 17 | 38 | 1.6 | 4.8 | 0.00 | 0.00 | 0.00 | 72 | 1019.7 |
| 20260509174546 | 16 | 257 | 1.6 | 4.8 | 0.00 | 0.00 | 0.00 | 71 | 1019.8 |